Location: Boneville
(33.4331°N, 82.4399°W)
Time: 10:04:25
(UTC+00:00)

N. Korean satellite - Visible Passes

Search period start: 30 November 2021 00:00
Search period end: 10 December 2021 00:00
Orbit: 447 x 495 km, 97.3° (Epoch: 29 November)

Date Brightness Start Highest point End Pass type
(mag) Time Alt. Az. Time Alt. Az. Time Alt. Az.
30 Nov 9.2 09:58:56 10° NE 10:01:25 19° E 10:03:53 10° SE visible
30 Nov 8.0 11:32:17 10° NNW 11:34:26 16° WNW 11:36:35 10° WSW visible
01 Dec 6.8 11:02:56 10° N 11:06:07 40° WNW 11:09:17 10° SW visible
01 Dec 10.2 23:08:06 10° WSW 23:09:14 11° W 23:10:21 10° WNW visible
02 Dec 6.6 10:34:19 10° NNE 10:37:41 69° E 10:41:02 10° S visible
03 Dec 8.8 10:06:20 10° NE 10:09:09 24° E 10:11:57 10° SSE visible
03 Dec 8.2 11:40:30 10° NW 11:42:04 13° WNW 11:43:37 10° W visible
04 Dec 7.1 11:10:45 10° N 11:13:45 30° WNW 11:16:45 10° SW visible
05 Dec 6.3 10:41:56 10° N 10:45:19 88° WNW 10:48:41 10° SSW visible
05 Dec 9.6 22:45:32 10° SSW 22:48:17 21° W 22:51:01 10° NW visible
06 Dec 8.2 10:13:43 10° NNE 10:16:46 31° E 10:19:49 10° SSE visible
07 Dec 9.8 09:46:36 10° ENE 09:48:07 13° E 09:49:39 10° ESE visible
07 Dec 7.5 11:18:30 10° NNW 11:21:17 24° WNW 11:24:04 10° SW visible
08 Dec 6.3 10:49:30 10° N 10:52:51 66° WNW 10:56:13 10° SSW visible
08 Dec 9.7 22:53:33 10° SW 22:55:52 16° W 22:58:09 10° NW visible
09 Dec 7.7 10:21:04 10° NNE 10:24:18 41° E 10:27:31 10° S visible
